TimeCDT,TemperatureF,Dew PointF,Humidity,Sea Level PressureIn,VisibilityMPH,Wind Direction,Wind SpeedMPH,Gust SpeedMPH,PrecipitationIn,Events,Conditions,WindDirDegrees,DateUTC
12:56 AM,52.0,38.8,61,29.64,10.0,South,10.4,-,N/A,,Mostly Cloudy,190,2012-10-19 05:56:00
1:56 AM,52.9,37.9,57,29.63,10.0,SSW,10.4,-,N/A,,Mostly Cloudy,210,2012-10-19 06:56:00
2:56 AM,52.9,37.9,57,29.61,10.0,South,10.4,-,N/A,,Scattered Clouds,190,2012-10-19 07:56:00
3:56 AM,52.9,37.9,57,29.60,10.0,SSW,12.7,-,N/A,,Mostly Cloudy,200,2012-10-19 08:56:00
4:56 AM,52.9,37.9,57,29.61,10.0,SW,11.5,-,N/A,,Mostly Cloudy,220,2012-10-19 09:56:00
5:56 AM,52.9,37.9,57,29.61,10.0,SSW,11.5,-,N/A,,Overcast,210,2012-10-19 10:56:00
6:56 AM,52.0,38.8,61,29.61,10.0,SSW,11.5,-,N/A,,Mostly Cloudy,210,2012-10-19 11:56:00
7:56 AM,52.0,39.9,63,29.62,10.0,SSW,11.5,-,N/A,,Mostly Cloudy,210,2012-10-19 12:56:00
8:56 AM,54.0,41.0,62,29.63,10.0,SW,10.4,-,N/A,,Mostly Cloudy,220,2012-10-19 13:56:00
9:56 AM,52.9,43.0,69,29.65,6.0,WSW,11.5,20.7,0.00,Rain,Light Rain,240,2012-10-19 14:56:00
10:56 AM,50.0,45.9,86,29.67,5.0,West,12.7,20.7,0.01,Rain,Light Rain,260,2012-10-19 15:56:00
11:56 AM,50.0,45.9,86,29.68,10.0,WSW,11.5,-,0.02,,Mostly Cloudy,240,2012-10-19 16:56:00
12:56 PM,52.0,46.9,83,29.68,8.0,WSW,10.4,-,N/A,,Mostly Cloudy,240,2012-10-19 17:56:00
2:56 PM,54.0,45.0,72,29.69,10.0,West,9.2,-,N/A,,Overcast,260,2012-10-19 19:56:00
4:56 PM,52.9,46.9,80,29.74,10.0,WNW,11.5,-,0.00,,Overcast,300,2012-10-19 21:56:00
5:56 PM,50.9,46.9,86,29.75,10.0,West,5.8,-,0.00,,Overcast,270,2012-10-19 22:56:00
6:56 PM,50.9,46.9,86,29.77,10.0,WSW,5.8,-,N/A,,Overcast,250,2012-10-19 23:56:00
7:56 PM,50.9,45.9,83,29.78,10.0,WSW,5.8,-,N/A,,Overcast,250,2012-10-20 00:56:00
9:56 PM,52.0,43.9,74,29.81,10.0,West,8.1,-,N/A,,Overcast,260,2012-10-20 02:56:00
10:56 PM,50.9,45.0,80,29.81,10.0,West,8.1,-,N/A,,Overcast,260,2012-10-20 03:56:00
11:56 PM,50.9,43.9,77,29.81,10.0,WSW,8.1,-,N/A,,Overcast,240,2012-10-20 04:56:00